CAPE
0 4 0 0 0 0 30 11 9 178 186 172 188 357 191 534 931 1130 839 1565 911 730 1336 1780 918 1017 1470 1414 1056 1218 1289 624 523 162 230 1023 761 1139 1297 1397 1446 1497 1546 1662 1765 1844 2079 2344 2498 2543 2766 2864 2896 3110 3068 3098 3053 3228 3253 3308 3127 2997 3018 3051 3063 2982 2915 2789 2719 2585 2569 2548 2512 2770 2888 2839 2729 2782 2875 2853 2748 2635 2724 2778 2656 2682 2465 2469 2537 2446 2623 2876 2801 2866 2957 2847 2717
0 0 0 0 0 95 486 282 6 101 143 222 252 282 48 96 819 1072 1068 1089 860 876 1438 1691 1324 1016 1200 1089 1006 1074 968 1165 1266 1074 1002 1011 1279 1195 1279 1394 1357 1377 1518 1692 1854 1966 2151 2462 2646 2740 2915 3000 3006 2951 2936 2830 2846 2945 3062 3101 3050 2973 3012 3012 3033 2984 2870 2735 2784 2586 2301 2556 2626 2835 2735 2768 2956 2871 2841 2789 2738 2910 2796 2778 2675 2576 2460 2191 2439 2772 2822 2871 2852 2771 2813 2801 2695
7 0 0 0 0 192 235 75 12 211 245 194 356 216 560 274 1066 784 1187 903 1048 1260 838 1343 789 941 1245 839 1098 892 680 902 872 936 1124 1212 1033 1010 1140 1175 1254 1418 1656 1738 1859 2001 2195 2486 2762 2928 2909 2931 2962 2826 2795 2786 2835 3036 3034 3032 2976 2966 2970 3014 2996 2963 2769 2773 2678 2559 2535 2238 2568 2642 2643 2898 2916 2806 2768 2777 2758 2782 2774 2626 2571 2646 2598 2612 2682 2791 2955 2957 2901 2724 2634 2524 2498
8 0 0 0 627 48 375 593 332 307 261 170 218 681 830 216 762 750 1300 1358 1573 1005 924 899 1334 612 984 859 693 429 527 565 815 851 987 935 838 928 1010 1151 1629 1583 1673 1738 1810 2028 2177 2632 2984 3076 2793 2804 2720 2823 2856 2845 2966 3012 2806 2726 2757 2885 2913 2906 2916 2944 2841 2701 2638 2527 2508 2506 2540 2690 2495 2747 2872 2835 2703 2654 2662 2738 2818 2404 2746 2387 2422 2593 2295 2355 2836 2849 2737 2597 2538 2467 2401
693 556 777 336 307 501 469 524 372 358 374 266 455 1212 762 677 1143 1248 641 1208 1038 1078 1128 927 410 527 664 432 562 601 532 590 773 848 821 808 872 954 978 1172 1312 1457 1453 1565 1910 2100 2387 2796 2940 2690 2620 2752 2637 2736 2504 2784 2809 2692 2683 2625 2580 2699 2824 2763 2845 2721 2811 2700 2530 2546 2708 2631 2706 2820 2811 2728 2652 2662 2588 2710 2875 2761 2643 2324 2323 2571 2688 2595 2261 2428 2626 2847 2845 2811 2668 2330 2557
556 719 979 383 346 601 697 371 477 478 509 341 681 1362 892 684 1107 1250 1193 1259 1272 903 1059 1058 413 564 721 906 622 486 483 664 676 823 819 780 897 809 819 1156 1219 1205 1443 1753 1990 2172 2435 2902 2578 2431 2498 2672 2567 2594 2561 2624 2607 2610 2592 2626 2704 2827 2680 2526 2501 2379 2601 2396 2427 2608 2744 2766 2751 2694 2721 2616 2302 2568 2518 2599 2686 2483 2436 2353 2459 2355 2474 2353 2257 2626 3020 2819 2793 2576 2546 2563 2572
505 746 540 449 1725 672 349 419 474 730 953 944 1185 718 1152 1074 1463 1056 631 718 1071 999 815 468 401 334 435 416 424 462 466 542 734 757 785 811 754 697 772 844 800 1219 1660 1864 1993 2168 2376 2714 2365 2500 2639 2540 2552 2602 2647 2680 2636 2576 2662 2616 2590 2573 2562 2527 2400 2336 2268 2482 2472 2504 2526 2681 2735 2685 2585 2614 2561 2320 2596 2642 2682 2610 2334 2290 2387 2326 2354 2460 2362 2812 2861 2487 2445 2466 2409 2576 2632
628 954 728 458 838 400 306 468 313 696 1031 857 872 941 1259 1476 1367 1168 910 932 607 1072 622 851 775 509 416 436 493 446 460 661 724 746 781 744 712 738 591 527 827 1426 1690 1830 1994 2120 2531 2539 2652 2693 2706 2754 2713 2584 2572 2586 2648 2654 2672 2676 2621 2507 2489 2444 2402 2412 2454 2587 2529 2536 2541 2729 2692 2588 2438 2312 2163 2398 2497 2616 2553 2404 2348 2170 2487 2486 2169 2336 2421 2545 2394 2439 2476 2485 2712 2643 2525
477 416 608 743 311 525 635 396 519 841 1453 1169 1504 1204 1256 1099 1934 1571 706 780 768 1196 1216 417 312 426 351 408 435 452 553 660 758 802 715 671 655 535 505 616 920 1374 1523 1792 2082 2266 2346 2409 2558 2575 2684 2724 2592 2588 2565 2657 2683 2713 2724 2638 2639 2586 2429 2420 2537 2586 2462 2111 2308 2531 2586 2716 2618 2473 2434 2368 2372 2382 2555 2556 2230 2546 2471 2298 2221 2478 2298 2309 2437 2366 2345 2360 2405 2617 2616 2746 2634
454 409 940 430 640 599 411 430 342 636 944 900 1577 1288 1298 1283 1201 1355 1189 900 779 969 786 954 354 426 455 461 400 494 411 724 787 673 566 530 406 436 499 621 1018 1340 1736 2019 2066 2051 2203 2580 2614 2487 2277 2487 2704 2639 2692 2705 2776 2744 2702 2668 2513 2520 2559 2478 2413 2261 2432 2410 2513 2638 2699 2622 2608 2501 2468 2452 2467 2495 2320 2377 2323 2512 2196 2486 2467 2495 2409 2302 2221 2139 2371 2410 2382 2500 2487 2597 2726
548 1200 1388 573 624 483 498 454 220 625 1054 1283 1220 1342 1559 1242 1087 1380 1818 924 763 858 460 421 449 480 506 464 443 356 439 477 510 500 486 347 383 475 499 675 1222 1632 1807 1872 1916 2020 2236 2328 2360 2491 2644 2685 2732 2718 2727 2746 2812 2816 2796 2704 2631 2574 2371 2224 2313 2492 2482 2345 2520 2577 2612 2501 2516 2539 2363 2151 2443 2424 2383 2338 2230 2262 2417 2464 2374 2334 2044 1948 2272 2246 2307 2460 2320 2263 2600 2771 2710
1004 782 1420 758 556 359 677 725 384 652 1029 1173 1617 1587 1669 1257 982 1244 733 791 644 494 386 404 536 568 467 506 279 361 458 430 437 411 392 332 320 359 616 1093 1331 1488 1650 1827 1908 1894 2004 2332 2465 2609 2628 2648 2701 2640 2701 2741 2750 2686 2709 2703 2571 2289 2210 2178 2422 2470 2438 2560 2499 2410 2522 2505 2427 2575 2598 2514 2420 2340 2165 2482 2284 2293 2493 2423 2180 2125 1916 1917 2282 2271 2340 2400 2113 2091 2436 2594 2567
558 1443 910 497 568 616 1094 1076 674 824 1548 1556 1544 1238 1610 1440 1414 1412 890 611 527 646 726 589 552 501 508 426 280 333 441 457 342 384 412 319 310 477 792 957 1169 1471 1731 1898 1853 1884 2041 1971 2206 2424 2545 2644 2628 2565 2584 2627 2659 2728 2646 2590 2390 2322 2366 2414 2235 2338 2320 2410 2420 2434 2505 2488 2357 2382 2566 2536 2398 2190 2162 2296 2000 2131 2296 2188 2347 2187 1956 2036 2106 2127 2117 2194 2043 2095 2319 2688 2701
490 1259 923 645 1144 839 664 459 480 421 1092 1101 1378 1992 1642 1565 1631 1507 561 760 798 1056 550 326 650 486 514 401 248 225 440 480 470 410 302 139 273 421 440 681 1248 1606 1697 1734 1806 1820 1907 2009 2232 2316 2464 2428 2426 2531 2534 2634 2718 2708 2614 2476 2320 2238 2289 2359 2240 2173 2227 2293 2154 1985 2040 2333 1972 2074 2410 2390 2228 1941 1917 1749 2332 2098 2211 2299 2079 2236 2227 2158 1982 1850 1843 2023 2022 2013 2296 2593 2560
368 1114 973 765 689 571 807 441 273 760 120 1131 1210 1720 1470 988 1407 1372 1028 911 1065 721 395 515 555 517 422 465 352 246 188 316 406 245 74 146 282 204 216 657 1272 1432 1543 1756 1828 1860 1911 2053 2172 2277 2394 2254 2109 2190 2396 2646 2682 2679 2477 2368 2248 2214 2175 2186 2086 2041 2215 2188 1940 2210 2228 2178 2228 2317 2492 2184 2127 2042 1834 1618 2018 1914 2018 2105 2169 2168 2163 2201 2047 2009 1853 1889 2005 2047 2348 2442 2511
185 1097 918 799 602 673 503 345 830 542 491 803 916 1542 1201 878 881 1104 1320 1410 738 762 640 478 500 564 419 453 325 245 161 225 282 66 13 168 120 109 375 675 961 1270 1519 1656 1715 1831 1965 2124 2228 2258 2190 2074 2043 2124 2352 2513 2586 2565 2491 2354 2348 2272 2227 2200 2210 2148 2103 2128 2074 2122 2065 2227 2284 2345 2456 2306 2196 2191 2027 2014 2094 2056 1980 1969 2114 2220 2180 2142 1944 1804 1907 1940 2045 2315 2480 2487 2378
131 827 552 601 622 601 507 305 432 661 867 1353 694 1184 1396 953 1109 1230 1136 851 819 844 694 669 873 665 504 443 406 180 144 236 205 3 4 36 39 142 235 355 828 1200 1443 1530 1587 1697 1939 2141 2178 2152 2066 1977 2012 2169 2302 2415 2587 2409 2425 2459 2369 2280 2238 2187 2070 2080 1716 1871 2347 2308 2507 2378 2304 2308 2208 2089 2205 2339 1961 2049 1927 1912 1898 1904 2056 2284 2091 1992 1814 1713 1902 2062 2323 2462 2461 2548 2633
258 614 543 666 621 480 455 406 447 732 941 1024 1218 1324 1008 966 635 831 1126 785 783 862 772 724 494 596 523 446 310 124 142 186 44 1 0 0 1 29 80 227 710 966 1241 1344 1305 1694 1971 1986 1941 1951 1926 1930 2062 2277 2296 2330 2416 2349 2206 2315 2368 2135 2134 1994 2247 2439 2557 2387 2337 2526 2331 2623 2041 2086 2298 2289 2462 2430 2075 2080 2025 2023 1896 1958 2144 2105 1966 1916 1988 2004 2024 2220 2435 2538 2490 2364 2598
41 993 560 287 400 524 281 553 431 878 600 970 1280 1580 1579 777 622 712 926 728 726 884 722 712 346 624 432 394 197 118 95 94 9 0 0 0 0 1 44 166 274 746 990 1027 1227 1676 1866 1866 1842 1788 1814 1930 2161 2216 2262 2326 2209 2206 2204 2215 2260 2428 2431 2868 2495 2622 2266 2229 2248 2404 2468 2131 2068 2368 2401 2460 2632 2223 2334 2223 2185 2078 1917 1921 2004 2034 1906 1905 2223 2288 2332 2405 2450 2675 2692 1934 2022
61 88 549 357 316 452 538 375 975 663 996 1010 950 1001 603 1197 888 815 1239 780 654 690 710 574 555 577 492 356 185 87 89 50 6 0 0 0 0 0 12 25 106 538 728 958 1284 1571 1714 1758 1786 1838 1861 1922 2098 2111 2169 2189 2150 2152 2125 2136 2071 1888 1857 2018 1965 1977 2200 2187 2203 2189 2126 2307 2154 2001 2078 2112 2152 2014 1718 1965 2229 2196 2219 2180 2132 2467 1921 1960 2223 2339 2404 2490 2714 3235 2368 2388 1842
140 61 45 19 421 680 528 1176 1386 927 1674 1055 1107 853 663 1074 1368 1359 1790 1081 1051 692 651 498 654 607 507 402 181 75 110 50 10 0 0 0 0 0 0 0 5 53 553 838 1124 1422 1616 1698 1715 1913 1910 1804 1902 2008 2042 2026 2022 2080 1942 1887 2004 2066 1980 1829 1747 1853 2255 2277 2212 2566 1966 2050 1894 1696 1961 1726 1700 1704 1666 1743 1890 1871 1896 1906 2125 1652 1806 2058 2030 1944 2204 2639 2369 2422 2523 2312 1952
16 109 109 53 560 516 693 559 970 587 760 1470 1234 808 1030 627 1146 884 1124 1157 1242 823 670 541 621 684 684 527 185 117 138 47 4 0 0 0 0 0 0 0 0 0 178 744 941 1213 1498 1665 1848 1921 1928 1909 1904 1836 1836 2052 1896 1867 1815 1779 1934 2049 1999 1908 2030 2122 2199 2435 2306 2396 2124 2042 2025 1955 1792 1764 1712 1685 1652 1718 1757 1825 1886 1973 2581 1799 1794 1808 1840 1928 2019 2071 2201 2234 2237 1533 1399
7 18 37 17 683 558 385 189 718 631 714 1268 761 1199 700 867 1010 777 970 1097 1495 926 702 529 434 592 587 451 263 296 147 63 11 0 0 0 0 3 0 0 0 0 162 599 850 1132 1457 1707 1854 1858 1834 1809 1724 1669 1724 1971 1635 1647 1676 1597 1759 1841 1772 1780 2036 2161 2180 2297 1983 2240 2038 2091 1947 1705 1627 1682 1760 1714 1730 1823 1912 2022 1892 1861 2325 2243 1978 1947 2123 2074 2134 2334 2139 1973 1772 1958 2734
0 15 52 90 458 343 347 275 470 757 587 1045 691 934 1350 530 952 770 951 586 1116 1229 790 470 454 404 450 443 377 381 270 121 29 4 1 0 0 8 0 0 0 0 40 540 799 1009 1371 1565 1718 1705 1567 1536 1530 1662 1798 1668 1494 1437 1398 2162 1732 1761 1728 1890 2067 2155 2229 2073 1844 2368 2742 2068 1733 1477 1489 1624 1761 1811 1727 1760 1756 1889 2030 1912 2276 2072 2036 1961 2379 2452 2176 2191 2208 2174 1874 2261 2204
0 0 0 122 350 173 16 350 455 516 568 512 502 793 1146 811 1102 839 622 775 851 861 851 334 321 318 391 432 452 459 347 244 111 68 39 8 3 20 0 0 0 0 34 241 692 846 1194 1584 1514 1381 1567 1538 1720 1958 1893 1728 1860 1254 1384 1576 1488 2270 1803 1975 2158 2204 2208 2063 1998 2472 2631 2067 1771 1613 1609 1581 1611 1779 1746 1633 1660 1697 1751 1789 2040 1600 2166 1988 1788 1842 2060 2210 2536 2354 2469 2062 2636
0 0 0 1 150 101 15 236 246 404 547 785 475 488 871 905 654 622 645 799 571 469 1065 183 218 335 417 451 400 461 376 334 281 224 131 73 14 21 4 0 0 40 51 31 456 608 1036 1426 1366 1575 1683 1562 1880 1900 1930 1830 2087 1907 1199 1292 1421 2484 1722 1921 1914 2179 2042 1456 1536 2120 2462 1923 1693 1562 1443 1336 1419 1826 1749 1715 2088 1870 2112 2154 2098 1848 1657 2223 2295 1966 2221 2246 2389 2556 2445 2455 2292
0 0 0 0 2 176 148 296 360 471 433 537 811 564 781 724 548 572 612 600 552 624 556 188 164 207 314 356 421 394 408 375 357 305 276 184 43 25 11 18 18 171 201 105 64 416 1040 1111 1282 1703 1633 1671 1672 1748 1838 1884 1971 1450 909 1016 1446 1629 1349 1409 1586 2093 1665 1056 1297 1513 1652 1768 1412 1150 1070 1303 1640 1743 1748 1717 1890 1765 2032 2180 2206 2334 2315 2200 2698 2138 2609 2816 2543 2705 2707 1878 2170
0 0 0 0 0 0 0 1 27 86 333 514 624 730 543 446 410 447 516 644 520 521 435 304 179 153 107 104 109 358 432 399 321 403 376 287 95 7 2 6 64 268 277 237 170 120 830 862 1277 1601 1643 1673 1380 1571 1988 1734 1690 1188 756 866 985 1338 1382 1207 1276 1557 1377 958 875 1118 1393 1568 1986 1362 1226 1468 1634 1702 1755 1847 1680 1708 1939 2140 2345 2313 2171 2549 2468 2800 2691 2461 2548 2881 2871 2568 2401
0 0 0 0 0 0 0 0 0 119 178 262 294 500 396 315 373 546 500 592 533 534 464 294 247 149 55 72 68 56 103 382 283 426 419 271 134 8 0 0 16 242 243 297 285 286 500 702 1089 1396 1591 1673 1556 1586 1637 1426 1193 831 577 486 755 2007 1034 893 922 985 725 764 823 1111 1208 1538 1917 1686 1553 1534 2008 1543 1505 1784 1884 2045 1846 1967 1997 2018 1932 2135 2407 2384 2518 2812 2448 2360 2657 2331 2524
0 0 0 0 0 0 0 0 0 0 44 300 238 217 381 286 409 483 484 568 519 480 520 354 248 190 188 123 48 22 26 138 166 328 387 120 158 18 0 0 6 81 139 278 336 242 130 310 674 1203 1414 1511 1512 1425 1365 1070 796 567 682 384 1110 1555 880 846 960 728 1015 1058 1026 1006 925 1293 1479 1803 1705 1700 1613 1558 1652 1714 1516 1528 1991 1928 1728 1837 1680 1861 2298 2155 2555 2946 3255 2781 2396 2179 2252
0 0 0 0 0 0 0 0 0 0 7 111 316 274 133 127 576 589 491 578 443 493 506 370 345 280 225 114 54 39 26 52 58 72 196 83 188 42 0 3 0 12 39 231 265 207 147 194 457 839 1185 1243 1426 1168 1298 1101 604 619 951 527 1227 1215 1129 1006 841 982 1219 1185 1357 1095 851 1086 1095 1380 1198 1016 1228 1238 1600 1733 1821 1825 2106 1734 1615 1924 1622 1860 2021 2199 3177 2550 2739 2468 2097 2022 2034
0 0 0 0 0 0 0 0 0 0 0 44 310 353 600 139 410 634 522 542 479 563 504 488 395 443 204 136 43 83 49 121 42 79 181 179 188 130 9 6 1 3 0 123 100 199 123 139 330 740 914 971 1130 1211 1060 1117 711 600 1162 1303 1153 969 1133 1246 1352 1370 1218 1234 1169 1249 926 1264 1343 1186 978 863 1088 1420 1611 1276 1414 1520 1603 1393 1876 1824 1745 1704 2006 2165 2921 2583 2295 2108 1995 1756 1780
0 0 0 0 0 0 0 0 0 0 0 8 331 311 137 322 309 546 554 664 535 578 544 558 569 359 261 226 82 112 132 92 64 65 157 222 201 169 26 22 16 6 0 3 16 128 118 180 273 379 662 684 1037 1163 909 1062 768 640 1246 1056 996 1168 669 1282 1600 1348 1370 1347 1009 1323 1369 1582 1164 968 846 1165 1186 1522 1578 1401 1712 1653 1416 1447 1492 1350 1050 1401 1777 2054 2309 2613 2352 1738 1513 1440 1477
0 0 0 0 0 0 0 0 0 0 0 0 70 157 272 398 222 611 724 778 641 608 747 959 700 1064 342 270 136 157 130 92 83 34 70 109 92 144 72 140 45 7 0 0 0 36 270 231 134 156 273 252 915 1074 883 1118 797 899 965 644 981 910 528 1027 1440 1341 1237 1297 1703 1579 1836 1483 1288 1260 1137 1444 1604 1988 1535 1538 1497 1510 1512 1511 1434 1136 1072 1222 1489 1657 2046 2355 2236 1910 1398 1302 1222
0 0 0 0 0 0 0 0 0 0 0 0 20 42 202 236 285 505 666 741 666 652 814 1021 890 597 598 353 276 194 117 138 163 25 24 56 108 129 144 86 56 1 3 0 0 6 320 289 194 260 203 275 862 1067 872 1012 684 926 478 683 85 862 1000 747 1038 1151 1259 1995 2153 1982 2067 1635 1578 1417 1500 1678 1678 2175 1452 1731 1427 1734 1878 1596 1321 1134 1049 1105 1181 1350 1520 1985 2244 1927 1161 1111 1017
0 0 0 0 0 0 0 0 0 0 0 0 13 25 145 156 335 359 560 623 715 653 744 663 718 656 864 456 414 279 184 173 148 89 11 93 90 112 140 138 39 0 0 0 0 32 301 333 266 242 82 429 762 1058 720 891 506 744 420 585 204 890 1644 1205 1111 1191 1430 2023 2162 2006 1917 1697 1673 1901 1838 1584 2036 2259 1667 1699 1924 2015 1582 1632 1681 1188 1220 1104 1154 1251 1521 1512 1797 1974 1405 958 703
0 0 0 0 0 0 0 0 0 0 0 0 14 43 40 256 334 407 378 432 660 677 748 616 619 625 573 545 470 391 297 230 155 185 64 91 75 81 127 93 50 0 1 0 0 44 195 448 411 214 14 592 752 904 503 817 332 692 293 392 112 790 1109 1521 892 1067 1367 2055 2065 2130 2093 1879 2223 2290 2161 2063 2102 2740 2213 2400 2203 2074 1671 1664 1560 1775 1686 1915 1467 1752 2244 2779 2332 390 600 503 242
0 0 0 0 0 0 0 0 0 0 0 0 0 84 34 457 455 536 452 408 491 721 829 678 734 603 606 633 618 438 451 340 232 199 169 80 58 98 69 62 169 14 20 0 0 55 120 568 414 195 84 667 825 891 665 949 515 792 381 412 185 794 1155 1361 816 984 1104 1792 2350 2442 2473 2370 2511 2522 2477 2252 1892 2162 1864 2656 2363 1908 1762 1507 1381 1796 2322 3013 3215 3107 2363 1216 1015 943 830 491 706
0 0 0 0 0 0 0 0 0 0 0 2 0 5 98 250 332 409 441 430 531 519 717 808 706 699 735 747 704 657 509 429 273 251 205 153 47 114 19 89 156 88 19 0 7 125 279 594 458 288 350 870 891 1206 956 1159 1076 1046 713 628 236 708 1074 973 922 982 1792 2327 2596 2862 3010 3101 3093 2978 2635 2520 2370 2361 2089 2070 2471 1901 1946 2372 1924 2209 2769 3231 2993 2902 1698 938 743 1835 496 387 121
0 0 0 0 0 0 0 0 0 0 0 0 5 35 107 160 375 367 325 325 612 645 567 624 681 802 859 794 743 735 659 478 368 322 297 255 165 146 87 115 197 153 35 0 35 174 420 777 585 406 624 1100 1008 1393 1304 1343 1168 1020 677 579 301 444 523 726 727 1127 2053 2472 2478 2726 2982 3185 3364 3241 2639 3122 3210 3216 2445 2542 2811 2597 1958 2453 3390 2175 2147 2440 2705 2717 1460 1828 728 91 134 366 980
0 0 0 0 0 0 0 0 0 0 0 0 62 72 45 236 193 385 346 369 634 636 672 802 774 739 800 731 765 771 815 622 446 376 368 305 252 244 229 172 213 221 86 0 25 190 404 775 699 666 747 1261 1171 1541 1483 1409 1372 1170 796 725 578 238 400 412 526 336 1855 2258 2076 2364 3004 2924 3092 3090 2753 3248 3351 3230 3110 2862 3050 3471 2981 2871 3301 2632 2295 2526 2761 2847 2148 2110 1160 1136 5 217 614
0 0 0 0 0 0 0 0 0 0 0 0 3 34 26 276 251 152 151 287 643 601 651 830 844 764 914 1026 822 809 854 742 596 414 406 397 344 289 292 273 229 266 150 0 8 113 311 763 761 894 884 1273 1408 1430 1486 1454 1285 964 666 572 345 198 21 110 110 234 809 1842 1874 2053 2836 2707 2876 2779 2826 3219 3147 2795 3124 2886 2881 3796 4042 3168 3423 3011 3197 2590 2742 2675 2062 1589 1952 892 404 491 439
0 0 0 0 0 0 0 0 0 0 0 0 0 26 11 191 186 173 250 223 368 585 580 706 654 790 980 917 819 837 843 770 682 513 402 441 416 431 353 345 246 361 175 0 41 50 221 790 738 974 1040 1235 1570 1382 1441 1522 1273 1025 564 584 13 247 0 3 0 136 722 1530 1634 1732 2428 2563 2519 2834 2694 2866 2832 2725 2950 2807 3443 3941 3463 3292 3752 2619 3607 3001 2408 2492 1978 2073 2161 2480 445 132 175
0 0 0 0 0 0 0 0 0 0 0 0 0 0 0 83 182 166 282 228 353 422 565 751 690 638 991 959 766 968 900 789 649 563 455 458 440 432 419 405 292 425 252 25 85 61 194 815 812 943 1153 1370 1649 1312 1430 1478 1258 1200 539 948 124 590 0 24 0 96 62 1120 1533 1569 1924 2360 2305 2366 2570 2449 2624 2694 2951 3001 3432 3738 3354 3371 3913 3686 3530 2951 3504 3237 3002 2562 2899 2951 1419 244 359
0 0 0 0 0 0 0 0 0 0 0 0 0 0 0 2 49 178 148 240 190 473 415 864 808 811 903 1031 915 963 914 796 683 685 606 471 472 428 375 402 356 479 349 200 135 104 360 589 1052 763 1251 1405 1651 1384 1380 1621 1347 1269 646 1085 781 580 654 218 3 525 847 176 1057 1330 1798 2179 2055 1941 2350 2459 2816 2799 3226 3096 3194 3244 3315 3389 4152 3674 3601 3233 3040 2740 3232 2413 2139 1295 1452 1297 1622
0 0 0 0 0 0 0 0 0 0 0 0 0 0 0 1 3 378 170 200 266 419 474 656 813 815 897 898 1050 985 914 842 778 768 752 538 495 477 431 418 414 520 428 485 245 264 658 552 1071 972 1043 1530 1649 1500 1424 1655 1508 1505 749 1291 921 477 1573 632 21 417 690 489 158 837 1853 2152 2046 1908 2987 2570 3022 3099 3163 3116 2982 2944 3051 3085 3620 3088 3448 3290 3038 3187 3235 2567 2103 1218 2581 1417 1166
0 0 0 0 0 0 0 0 0 0 0 0 0 0 0 0 0 0 270 214 115 187 634 626 614 687 760 862 927 984 819 700 833 842 817 734 480 452 435 424 431 441 584 522 503 387 1051 727 859 1284 908 1584 1745 1635 1454 1575 1677 1527 976 1349 954 519 1448 695 153 360 639 585 776 1663 1896 2065 2238 2061 3063 2670 3066 3222 3155 3276 3034 2579 2740 2927 3014 2815 3000 3227 3127 3410 3594 3191 2474 1846 2026 932 2119
0 0 0 0 0 0 0 0 0 0 0 0 0 0 0 0 0 0 0 2 168 327 725 653 652 833 850 858 810 817 756 866 883 943 822 761 625 515 484 431 454 435 608 570 525 508 1168 950 926 1278 1114 1300 1885 1612 1590 1614 1769 1456 1288 1265 1074 598 1380 828 316 297 329 755 510 1936 1928 2230 2486 2401 2848 3191 2931 3310 3189 3168 2927 2454 2696 2771 2474 2775 2798 3074 3302 3598 3453 3179 2738 2738 1900 2278 1988
0 0 0 0 0 0 0 0 0 0 0 0 0 0 0 0 0 0 0 0 107 135 604 633 785 945 915 842 746 727 730 759 823 988 1029 888 767 626 551 516 474 497 720 620 647 799 1163 1224 1090 1152 1371 1160 2009 1738 1567 1693 1692 1626 1333 1253 1288 707 1254 1022 515 415 198 611 294 2101 2251 2416 2692 2591 2760 3265 3086 3264 3334 2933 2845 2487 2334 2943 1948 3195 2401 3041 3164 3517 3198 2764 3170 2782 2032 2496 2247
0 0 0 0 0 0 0 0 0 0 0 0 0 0 0 0 0 0 0 0 0 93 428 550 616 938 911 818 861 785 694 640 884 1119 1222 999 920 662 606 570 558 534 648 781 769 1066 1213 1499 1284 1156 1444 1276 1836 1815 1696 1683 1663 1754 1328 1316 1326 1041 1116 1108 940 820 305 440 281 1576 2235 2423 2803 2480 2828 2947 3060 3126 3405 2951 2874 2734 2086 2654 1948 2385 2699 2862 3019 3013 3045 2903 3021 3077 2821 2812 2310
0 0 0 0 0 0 0 0 0 0 0 0 0 0 0 0 0 0 0 0 0 0 259 379 563 820 857 848 816 872 866 799 696 931 1165 1219 1158 1061 756 720 663 592 832 933 892 1192 1329 1654 1590 1370 1496 1389 1646 1909 1750 1678 1703 1694 1541 1354 1251 1245 969 980 1236 1377 595 590 322 997 2120 2212 2728 2571 2612 2822 2720 2774 3303 3068 2848 3068 2804 2744 2663 2515 2531 2516 2796 3042 3012 2967 2875 2998 2831 3077 2555
0 0 0 0 0 0 0 0 0 0 0 0 0 0 0 0 0 0 0 0 0 0 0 557 602 873 878 849 758 692 611 565 653 979 1114 1243 1250 1186 1144 996 887 719 1056 1068 1005 1191 1509 1673 1885 1697 1684 1596 1505 1972 1768 1677 1585 1601 1624 1413 1262 1276 1198 818 987 1768 1067 820 434 540 1545 2182 2171 2738 2471 2486 2423 2412 3053 3112 3048 2769 3193 2803 2864 2876 2686 3016 2692 2923 3158 2903 2874 3222 2929 3267 2571
0 0 0 0 0 0 0 0 0 0 0 0 0 0 0 0 0 0 0 0 0 0 0 440 735 824 906 887 796 736 670 613 664 1131 1206 1413 1459 1260 1192 1228 1239 1167 1196 1234 1137 1230 1644 1820 2084 2018 2006 1908 1557 1898 1818 1641 1492 1438 1457 1406 1219 1233 1183 844 837 1416 1646 1111 803 489 1090 1794 2185 2316 2443 2206 2199 2297 2764 2935 2986 2799 2986 3109 2764 3109 3136 3064 2919 2738 3090 2742 2815 3027 3115 3125 2852
0 0 0 0 0 0 0 0 0 0 0 0 0 0 0 0 0 0 0 0 0 0 0 180 688 733 865 816 794 782 677 604 623 1003 1252 1507 1475 1370 1258 1224 1234 1325 1283 1354 1282 1092 1634 2100 2246 2220 2286 2178 1817 1795 1819 1633 1450 1353 1321 1306 1146 1094 1096 898 806 916 1838 1548 1316 968 1084 1327 1777 2178 2122 2475 1886 2621 2316 3456 2916 2865 3135 3029 3078 3060 3060 3351 3018 3084 3032 3157 2613 2735 2644 3192 2879
0 0 0 0 0 0 0 0 0 0 0 0 0 0 0 0 0 0 0 0 0 0 0 659 687 874 891 801 748 780 674 618 727 916 1233 1494 1449 1387 1364 1259 1255 1382 1409 1384 1458 1246 1602 2165 2456 2440 2397 2338 2110 1892 1863 1747 1517 1396 1368 1280 1120 1055 980 929 767 898 1116 1895 1740 1489 1476 1368 1297 1872 2025 2232 2075 2534 2188 3102 2874 2835 3125 3028 3045 3161 2994 3360 3185 2883 3239 2832 3027 3080 3287 3043 3098
0 0 0 0 0 0 0 0 0 0 0 0 0 0 0 0 0 0 0 0 0 0 0 113 723 1026 844 707 702 721 788 754 1130 1181 1235 1311 1382 1422 1368 1305 1207 1410 1626 1466 1518 1510 1669 2058 2578 2619 2571 2485 2302 2058 2067 1922 1704 1443 1447 1385 1192 1067 1031 930 779 888 782 1467 1995 1899 1817 1597 1222 1392 2008 1890 2240 1965 2408 3012 2761 2894 2957 3011 3078 2930 3169 3125 3483 3020 3087 3211 2861 2940 3177 3556 3290
0 1 6 4 0 0 0 0 0 0 0 0 0 0 0 0 0 0 0 0 0 0 0 0 1079 1025 762 737 641 638 930 1160 1205 1333 1385 1277 1284 1222 1250 1292 1297 1438 1685 1646 1525 1657 1754 2003 2505 2716 2706 2624 2458 2207 2144 2112 1912 1588 1453 1410 1252 1177 1157 997 874 898 809 839 1551 2058 1942 1863 1345 949 1848 1763 2139 1951 2449 2446 2953 2929 2862 2893 3065 2944 3128 2955 3314 3236 3087 3263 2811 2937 2888 3014 3553
0 0 8 17 3 0 0 0 0 0 0 0 0 0 0 0 0 0 0 0 0 0 0 0 1179 1005 905 748 828 814 1108 1239 1173 1266 1309 1337 1332 1370 1314 1351 1390 1375 1636 1751 1592 1673 1826 2027 2419 2698 2784 2723 2593 2361 2246 2223 2132 1862 1492 1423 1310 1251 1314 1154 972 967 956 746 962 1662 1932 1824 1664 1038 976 2093 1910 2123 2214 2197 2785 2875 2743 2796 2849 2955 3138 2964 3111 3103 2989 3388 3008 2857 2798 2570 2951
Wind_Speed
nan nan nan nan nan nan nan nan nan 9 10 11 8 8 6 6 5 4 5 6 3 9 13 8 4 7 9 8 2 6 11 3 7 5 5 5 10 13 10 11 9 8 6 4 4 4 4 5 6 6 5 4 5 5 4 5 5 5 5 5 5 5 5 5 6 6 6 6 6 7 7 7 7 7 6 6 6 6 6 6 6 6 6 6 6 5 4 3 4 5 6 6 6 6 7 8 9
nan nan nan nan nan nan 9 9 nan 8 10 10 13 10 nan nan 4 7 5 2 6 8 11 11 9 8 13 3 1 5 12 8 2 5 3 10 11 9 12 12 10 9 6 4 4 3 3 3 4 5 5 5 5 5 4 5 5 5 6 5 5 5 6 6 7 7 6 6 6 6 6 7 6 6 7 7 6 6 6 6 5 5 4 5 5 6 5 5 4 5 6 6 6 6 7 8 9
nan nan nan nan nan 11 9 nan nan 6 7 10 7 6 6 6 8 5 6 4 5 3 6 8 8 11 8 6 6 2 5 3 14 8 6 12 12 9 12 11 9 8 7 5 5 4 3 3 4 4 5 5 5 5 5 5 6 6 6 6 6 6 6 7 6 6 6 6 6 6 7 7 7 7 7 6 6 6 5 6 5 4 4 5 6 5 5 4 4 5 6 5 5 6 7 8 8
nan nan nan nan 8 nan 8 9 9 8 9 11 7 8 4 10 7 5 7 9 2 1 5 6 8 8 1 5 4 10 2 1 5 14 7 12 11 12 12 12 9 7 7 6 5 4 4 4 4 4 5 5 5 5 5 5 6 6 6 6 6 6 7 7 7 6 7 7 7 7 7 7 8 8 7 6 6 6 6 7 6 5 5 5 5 5 5 4 5 4 4 5 5 5 7 8 7
11 11 8 7 6 7 9 9 7 9 9 7 7 7 3 14 5 1 5 9 4 5 7 9 4 10 2 7 4 2 3 5 5 5 7 8 16 13 11 12 9 8 7 6 5 4 3 6 4 5 5 5 5 5 6 6 6 6 6 6 7 7 7 7 7 7 8 9 8 8 7 8 8 8 7 6 6 6 7 7 7 5 5 5 6 7 6 5 5 3 2 4 4 5 6 7 7
9 10 8 6 5 5 8 8 7 9 9 8 7 5 1 10 4 3 2 8 7 6 11 5 2 2 2 5 3 2 9 5 7 6 11 12 19 17 14 12 10 8 7 4 4 3 3 7 8 7 6 6 6 6 6 6 6 6 6 6 6 6 7 7 8 9 10 10 9 9 8 8 8 7 7 7 6 5 6 7 6 5 5 6 5 5 4 4 4 2 2 2 4 5 6 7 6
5 5 5 5 6 4 7 8 9 7 7 10 2 3 7 3 2 6 3 5 10 8 11 5 10 9 4 2 7 4 1 7 6 10 10 16 17 16 14 10 8 8 7 4 3 3 6 9 9 8 7 6 6 6 6 6 6 6 6 6 6 7 8 9 10 11 11 10 9 9 10 9 9 8 8 7 6 5 5 5 4 5 6 5 6 7 4 3 1 1 1 2 3 4 5 5 5
8 3 3 3 5 4 8 8 10 3 6 2 7 9 4 4 7 4 6 1 4 8 6 5 3 7 6 2 4 6 9 2 9 14 15 15 16 16 13 9 8 8 6 4 3 3 9 9 8 7 6 5 5 6 6 5 5 5 5 6 6 7 8 9 10 11 11 11 11 10 11 11 9 8 7 7 6 5 4 5 5 6 7 7 7 7 6 5 2 1 2 3 2 2 2 3 3
4 1 3 3 4 5 6 10 7 4 6 5 4 3 3 9 8 3 4 6 4 4 5 5 8 10 3 8 5 6 8 14 13 16 17 17 17 15 9 11 9 7 7 4 2 3 3 7 6 6 5 5 5 5 5 5 5 5 5 5 6 7 8 9 10 11 12 12 11 12 13 13 11 10 9 8 6 5 5 4 5 5 6 7 8 7 5 2 2 3 3 3 1 1 2 2 2
2 3 1 4 5 6 6 4 2 3 5 3 9 4 4 7 7 7 7 13 9 5 5 5 4 13 8 9 10 7 9 16 19 17 18 18 14 11 11 11 12 11 6 4 2 3 4 6 6 5 5 5 5 5 6 6 5 5 4 5 6 7 8 10 11 12 13 13 14 13 13 13 13 11 10 9 8 6 5 5 5 4 5 6 5 5 4 3 2 2 3 2 1 1 2 2 1
3 3 3 2 4 7 4 4 2 6 3 5 6 5 4 5 9 11 4 10 13 10 10 9 10 13 8 5 4 8 15 16 18 20 19 14 12 13 10 10 11 10 8 6 3 3 4 4 8 6 6 6 6 6 7 6 6 4 4 5 6 7 10 11 11 13 14 15 14 15 16 15 15 13 12 10 9 8 7 6 5 5 4 4 3 3 2 4 4 3 3 2 1 2 4 4 3
3 4 3 2 3 7 5 4 6 5 8 5 1 1 6 2 12 10 8 9 11 13 12 7 4 10 8 6 7 13 17 17 18 19 16 13 10 12 11 7 10 10 9 7 5 4 5 5 5 7 8 8 7 7 7 7 6 5 5 6 7 9 10 11 12 13 14 15 15 16 18 17 16 15 14 12 10 9 7 7 6 5 4 3 2 2 2 4 4 4 3 4 3 3 4 4 3
4 6 3 3 4 7 6 4 4 2 1 4 5 4 5 7 9 11 6 10 10 10 6 5 12 7 7 7 7 16 17 17 19 18 17 12 10 10 9 9 10 10 8 6 6 5 5 5 7 7 7 9 8 8 8 8 7 6 7 8 9 10 10 12 13 14 14 15 16 16 16 16 16 15 15 14 13 10 8 7 6 6 4 3 3 2 3 3 3 3 3 4 3 3 3 4 3
5 6 6 2 4 6 4 2 3 3 2 2 2 4 4 8 7 14 8 8 7 4 10 11 7 8 10 8 10 13 16 19 20 18 14 13 9 9 11 9 10 9 7 6 6 6 6 6 8 8 8 8 10 9 9 8 8 7 8 8 9 10 11 13 14 15 15 16 17 16 16 16 16 16 16 15 13 11 8 7 7 7 5 4 3 3 2 2 2 2 3 3 4 3 3 5 4
6 8 6 1 2 2 4 5 3 7 4 6 3 4 4 10 8 15 10 7 5 9 9 7 9 7 8 15 11 13 18 22 21 19 nan 12 13 11 11 8 8 7 6 6 6 7 7 7 8 9 9 10 10 12 13 10 9 8 9 9 10 10 11 12 13 14 15 17 17 17 16 16 15 15 15 14 13 11 9 8 7 7 6 4 2 1 1 0 1 2 2 2 3 3 4 5 5
6 9 6 3 1 3 2 2 8 9 5 4 5 1 3 9 7 12 10 5 9 7 9 6 8 3 12 5 14 17 20 21 20 nan nan 17 13 10 8 7 5 5 3 5 6 7 7 8 9 10 10 10 11 12 12 13 10 9 9 10 10 10 11 12 13 14 16 17 16 15 15 15 14 14 14 14 13 12 10 10 8 8 6 4 2 1 1 2 2 1 2 2 2 4 6 6 5
5 10 7 3 3 3 1 3 5 8 6 5 8 6 6 8 11 10 14 7 11 11 5 10 4 11 12 10 14 19 18 20 17 nan nan nan nan 8 5 3 2 2 3 5 7 7 6 8 9 10 11 10 10 11 12 13 11 9 9 9 10 11 11 13 14 15 14 14 14 14 12 12 13 14 13 13 12 13 13 12 10 8 7 5 3 3 4 4 4 3 3 3 3 5 7 7 5
10 8 7 4 1 3 1 3 7 9 15 9 10 10 8 7 8 9 10 9 7 7 5 6 11 11 13 14 16 18 18 17 nan nan nan nan nan nan nan 2 2 3 3 5 6 5 6 9 9 9 11 10 10 11 12 13 12 9 10 10 10 10 11 11 11 11 12 13 13 11 12 11 11 12 12 10 12 13 13 12 11 10 8 5 3 4 6 6 6 6 5 5 5 6 7 10 9
nan 9 8 1 3 1 3 5 5 10 12 13 8 6 6 8 6 10 6 8 10 5 5 7 14 16 18 16 17 19 nan nan nan nan nan nan nan nan nan 3 2 3 3 4 5 5 7 8 9 10 10 9 8 10 11 11 10 10 10 10 10 9 10 9 10 10 11 11 11 13 12 12 13 13 12 11 12 12 13 13 13 12 10 7 5 5 7 8 8 8 9 8 9 8 10 11 10
nan nan 6 1 2 1 4 6 8 9 15 14 11 5 4 4 4 8 7 9 9 10 10 8 16 23 22 19 17 nan nan nan nan nan nan nan nan nan nan nan 3 3 2 3 3 6 6 8 9 9 8 8 8 9 9 9 9 9 10 11 9 9 10 10 10 11 11 11 12 13 12 12 13 14 14 13 11 13 13 13 14 13 11 8 6 9 8 9 9 9 10 11 12 12 13 13 11
10 nan nan nan 3 1 2 8 10 8 13 15 11 8 4 2 7 6 8 8 7 7 11 17 22 23 23 20 19 nan 18 nan nan nan nan nan nan nan nan nan nan nan 1 1 3 5 7 7 8 8 7 7 7 7 7 8 8 8 10 10 10 10 10 11 10 11 11 11 13 14 12 11 12 12 11 11 12 12 13 13 13 14 15 14 11 13 13 13 12 15 14 13 13 14 14 15 8
nan 4 0 nan 8 3 2 8 13 11 14 17 18 17 7 1 6 7 11 8 8 6 10 17 22 22 21 19 17 16 17 nan nan nan nan nan nan nan nan nan nan nan 1 1 3 4 6 6 7 7 7 6 6 5 6 7 7 8 9 10 10 10 10 10 10 10 12 13 14 14 11 10 11 10 10 11 12 13 13 14 14 15 15 17 16 15 14 14 15 15 15 15 15 14 15 12 9
nan nan nan nan 8 6 2 3 13 12 15 17 17 16 14 6 8 11 8 9 8 4 11 16 18 21 18 17 18 14 16 nan nan nan nan nan nan nan nan nan nan nan 1 1 1 3 4 5 6 7 6 6 5 4 6 6 8 8 9 10 10 11 10 10 10 11 13 13 14 13 11 12 11 11 11 12 12 13 13 13 13 16 16 17 16 15 15 15 16 15 15 15 14 13 13 10 10
nan nan nan nan 11 4 9 5 9 13 16 13 14 18 19 17 9 11 12 11 9 5 8 13 17 19 18 17 17 14 14 17 nan nan nan nan nan nan nan nan nan nan nan 2 1 2 4 5 6 7 7 5 5 5 5 7 8 8 10 11 11 11 10 10 12 12 12 12 13 9 10 11 11 11 12 12 14 13 13 13 14 16 15 15 16 16 15 16 15 15 15 16 15 14 13 11 12
nan nan nan 9 7 3 nan 7 7 13 21 15 14 14 17 18 10 7 12 9 9 9 6 17 16 16 16 18 15 13 13 15 16 nan nan nan nan nan nan nan nan nan nan 3 2 2 4 4 6 7 7 7 5 5 6 7 8 8 10 11 11 11 9 11 12 11 10 9 9 10 12 11 11 10 11 13 13 13 12 12 13 15 14 15 14 15 16 17 16 17 17 16 14 14 14 13 15
nan nan nan nan 6 3 nan 6 6 10 18 20 11 13 20 18 19 10 9 11 12 10 8 16 19 17 16 16 13 11 15 17 13 12 11 nan nan nan nan nan nan nan nan nan 3 2 3 4 6 7 7 7 5 5 6 7 8 8 11 11 11 10 10 11 10 9 8 7 7 8 11 11 10 11 12 12 12 12 11 12 13 12 12 14 14 14 16 16 16 17 17 15 14 14 15 14 15
nan nan nan nan nan 7 5 6 7 9 24 23 16 11 21 23 19 11 11 15 15 15 13 14 17 19 21 21 16 13 16 18 16 11 10 10 nan nan nan nan nan 3 2 2 nan 2 3 4 4 5 5 6 5 5 7 8 8 10 11 11 10 9 9 9 7 8 7 7 9 9 9 10 10 11 12 13 12 11 11 11 12 11 13 13 12 14 15 16 16 17 16 16 15 16 16 16 16
nan nan nan nan nan nan nan nan nan nan 15 27 20 12 15 17 12 13 14 14 15 18 17 15 14 13 13 15 15 15 15 16 13 12 14 13 nan nan nan nan nan 6 3 2 2 2 6 5 5 5 5 5 5 5 7 7 8 10 9 10 9 8 7 6 6 7 9 9 9 9 9 10 11 11 12 12 11 11 12 11 10 12 13 13 12 14 14 14 15 17 14 15 17 18 17 17 18
nan nan nan nan nan nan nan nan nan 10 9 24 25 15 12 11 11 15 16 16 14 16 17 16 14 12 nan nan nan nan 10 14 14 13 13 10 9 nan nan nan nan 7 3 3 3 3 8 7 6 5 4 4 4 6 7 7 8 7 7 9 7 5 4 5 6 8 10 10 8 9 9 10 11 12 12 11 11 11 13 12 12 13 13 13 12 13 14 14 14 15 14 15 16 17 18 20 19
nan nan nan nan nan nan nan nan nan nan nan 13 19 14 11 12 15 16 18 15 16 13 16 14 12 14 12 11 nan nan nan 14 15 13 13 10 11 nan nan nan nan nan 5 4 3 4 6 4 5 5 5 5 5 6 6 5 6 5 6 6 7 5 5 5 6 8 9 10 10 10 9 10 11 11 11 11 12 12 12 12 12 15 15 12 12 12 13 15 15 16 16 15 17 17 20 20 18
nan nan nan nan nan nan nan nan nan nan nan 11 17 10 9 17 20 17 16 16 17 16 16 15 14 14 12 9 nan nan nan nan nan nan 15 nan 11 nan nan nan nan nan nan 6 4 6 6 6 6 5 6 6 6 6 7 5 4 4 4 6 7 8 5 6 7 8 10 9 9 10 9 11 12 12 12 13 13 13 12 12 12 14 14 12 13 11 12 15 15 17 15 15 17 18 20 19 19
nan nan nan nan nan nan nan nan nan nan nan nan 20 8 17 16 18 16 13 17 14 18 15 16 15 11 11 8 nan nan nan 11 nan nan 14 11 13 4 nan nan nan nan nan 8 nan 7 6 8 7 8 8 7 5 7 6 5 5 5 5 6 8 9 5 5 7 9 9 9 10 10 10 11 13 12 13 14 13 13 12 13 13 14 13 12 13 11 11 14 16 18 17 15 16 19 20 21 16
nan nan nan nan nan nan nan nan nan nan nan nan 16 14 21 17 12 15 15 17 17 17 17 16 17 15 13 10 nan 9 10 nan nan nan 14 14 13 5 nan nan nan nan nan nan nan 9 6 10 9 11 9 8 7 8 7 5 6 7 5 7 9 10 7 5 7 9 8 8 10 10 10 10 11 11 12 14 13 13 13 13 13 12 11 11 12 11 11 14 16 18 18 17 16 19 20 20 18
nan nan nan nan nan nan nan nan nan nan nan nan nan 11 18 17 19 19 17 20 20 18 16 15 14 11 13 12 12 10 10 nan nan nan nan 12 nan 11 nan 9 nan nan nan nan nan nan 8 9 9 9 8 7 8 8 9 6 7 6 5 7 8 9 8 5 5 7 7 6 9 9 9 10 11 11 12 13 12 11 12 12 13 12 10 10 11 11 12 14 15 17 18 17 18 18 20 19 18
nan nan nan nan nan nan nan nan nan nan nan nan nan nan 16 21 16 20 17 19 20 19 16 13 14 12 7 15 13 11 10 13 9 nan nan nan 15 12 10 nan nan nan nan nan nan nan 10 9 9 9 8 7 8 7 7 5 7 5 5 4 nan 8 6 6 6 6 7 6 7 9 10 11 11 11 12 11 10 11 11 11 11 12 11 11 11 11 13 14 15 16 18 17 17 20 19 19 18
nan nan nan nan nan nan nan nan nan nan nan nan nan nan 16 26 21 18 19 18 20 18 17 13 14 11 5 13 13 10 11 13 11 nan nan nan nan 11 11 11 nan nan nan nan nan nan 10 9 9 8 nan 7 7 6 5 4 6 4 5 3 5 6 6 5 6 6 6 6 8 8 8 11 10 10 10 11 11 9 11 11 10 10 12 12 11 11 14 15 17 17 19 19 20 19 19 20 18
nan nan nan nan nan nan nan nan nan nan nan nan nan nan nan 25 20 18 16 21 20 20 17 12 12 10 8 10 15 10 11 13 13 9 nan nan nan nan 11 nan nan nan nan nan nan nan 9 9 10 9 nan 7 7 7 4 4 6 4 3 4 6 6 6 5 5 8 9 8 7 8 7 9 8 9 10 10 10 9 9 10 8 11 12 12 13 14 15 16 17 17 17 17 14 14 16 16 13
nan nan nan nan nan nan nan nan nan nan nan nan nan nan nan 30 21 21 19 23 22 21 18 15 10 9 7 9 15 13 11 9 11 8 11 nan nan nan nan nan 13 nan nan nan nan nan 8 10 11 9 nan 8 7 7 5 3 6 5 4 5 4 5 6 5 6 8 10 10 8 8 8 7 7 8 9 10 10 9 10 10 9 12 13 15 13 14 15 17 17 17 15 14 14 13 14 12 13
nan nan nan nan nan nan nan nan nan nan nan nan nan nan nan 34 25 22 22 22 19 18 21 19 10 9 8 10 12 14 12 12 13 12 12 13 nan 13 nan nan 12 nan nan nan nan 9 10 9 9 9 9 8 7 8 5 3 5 4 2 3 4 4 5 7 6 6 8 9 8 8 8 7 7 8 9 11 11 10 10 10 10 11 12 11 11 12 12 14 15 16 15 14 16 15 13 13 10
nan nan nan nan nan nan nan nan nan nan nan nan nan nan 31 34 29 23 22 24 23 18 18 17 12 12 10 10 11 12 14 13 15 15 15 16 15 13 nan 11 11 12 nan nan nan 11 10 9 9 9 9 9 8 7 6 3 4 4 2 2 3 4 5 6 7 4 6 6 7 7 8 8 7 7 9 10 11 11 10 10 10 11 12 14 11 9 12 14 16 16 16 17 15 nan 14 14 14
nan nan nan nan nan nan nan nan nan nan nan nan nan nan nan 34 35 30 21 23 31 22 17 15 12 14 11 10 11 9 12 12 14 16 13 15 14 14 11 11 11 11 nan nan nan 11 10 11 10 10 9 9 8 7 6 4 4 2 3 0 1 3 3 5 5 5 5 6 6 7 7 7 7 7 8 9 10 9 11 12 12 12 12 13 11 11 13 16 16 15 14 15 14 15 nan 13 15
nan nan nan nan nan nan nan nan nan nan nan nan nan nan nan 32 37 35 25 23 29 24 21 17 16 15 12 9 13 11 11 9 14 16 15 16 15 14 12 13 12 12 12 nan nan 12 12 12 11 11 10 9 9 8 6 5 5 4 1 2 3 4 nan 7 6 8 5 6 7 6 5 6 6 6 7 8 8 8 10 12 13 13 12 11 11 12 14 14 16 15 14 14 15 15 14 11 12
nan nan nan nan nan nan nan nan nan nan nan nan nan nan nan 29 31 33 28 25 27 25 22 18 18 16 11 10 12 11 10 9 11 14 13 15 14 15 15 15 14 13 13 nan nan nan 13 13 13 12 11 9 9 8 6 5 6 5 5 5 nan 6 nan nan nan 5 4 6 5 6 5 5 7 6 7 8 6 7 8 10 10 11 11 11 11 11 12 13 14 13 12 12 14 14 9 10 12
nan nan nan nan nan nan nan nan nan nan nan nan nan nan nan nan 26 32 33 27 23 24 21 18 18 15 12 12 12 11 10 9 11 13 12 13 14 15 16 16 14 14 15 nan nan nan 14 13 13 13 11 10 8 9 7 5 7 6 5 3 3 3 nan nan nan nan nan 4 4 6 5 6 7 6 6 7 5 5 5 7 8 9 9 11 10 11 12 11 9 10 9 11 12 10 9 10 14
nan nan nan nan nan nan nan nan nan nan nan nan nan nan nan nan nan 32 35 32 27 23 20 17 17 16 14 14 12 12 11 9 10 10 12 12 14 14 13 14 14 15 15 16 13 14 14 13 13 13 13 11 9 10 8 6 6 7 6 4 2 3 3 2 nan 2 3 4 4 3 5 5 6 7 5 6 4 4 4 5 7 8 8 9 9 9 9 8 7 8 9 11 11 10 9 10 10
nan nan nan nan nan nan nan nan nan nan nan nan nan nan nan nan nan 35 33 39 35 28 19 14 17 18 16 15 14 13 12 9 9 10 12 12 13 14 13 13 15 15 16 15 14 14 14 13 12 13 13 12 10 10 9 8 7 8 7 4 3 2 1 1 nan 1 0 3 3 4 4 4 6 6 5 6 3 4 4 5 6 6 7 8 7 7 7 6 6 7 8 9 10 10 10 8 9
nan nan nan nan nan nan nan nan nan nan nan nan nan nan nan nan nan nan 33 32 37 34 22 17 16 15 16 15 15 15 13 12 10 10 11 12 12 13 15 15 15 13 14 16 14 14 14 13 12 12 12 12 12 10 10 9 8 9 8 5 5 3 0 2 3 1 1 1 3 3 4 4 4 6 4 6 4 4 5 5 5 7 6 6 5 4 6 6 7 7 7 7 9 9 10 10 8
nan nan nan nan nan nan nan nan nan nan nan nan nan nan nan nan nan nan nan nan 33 34 28 23 16 12 12 13 14 17 16 15 14 10 12 13 12 13 15 14 13 13 15 17 13 12 12 11 11 10 10 11 12 11 11 10 8 9 9 7 5 4 3 3 4 3 1 2 3 5 4 3 3 4 3 4 5 5 5 5 5 6 6 5 5 5 5 5 5 5 4 6 8 9 9 8 7
nan nan nan nan nan nan nan nan nan nan nan nan nan nan nan nan nan nan nan nan 20 30 33 30 22 13 12 13 16 16 15 18 16 14 14 14 13 14 15 14 12 12 14 17 16 14 11 11 11 9 7 9 11 11 11 10 9 9 10 9 5 4 4 5 4 3 1 2 3 6 6 4 2 2 3 3 5 4 5 6 6 6 6 5 5 4 5 4 4 4 5 5 6 6 8 8 7
nan nan nan nan nan nan nan nan nan nan nan nan nan nan nan nan nan nan nan nan nan nan 25 34 31 22 16 16 16 17 16 17 19 17 15 14 13 12 13 13 13 13 14 17 17 15 12 10 11 9 6 6 9 9 9 10 10 10 10 9 6 4 4 6 5 4 3 2 4 5 6 6 4 5 4 4 5 4 4 5 5 5 6 5 5 4 4 6 5 5 5 5 6 6 7 8 7
nan nan nan nan nan nan nan nan nan nan nan nan nan nan nan nan nan nan nan nan nan nan 17 31 34 29 25 21 19 21 18 19 20 19 16 15 14 14 12 11 12 13 16 17 17 17 14 11 11 10 8 6 7 7 6 7 8 10 10 10 9 5 5 6 6 5 6 5 4 5 5 5 5 4 5 4 4 4 5 5 6 4 5 5 5 5 4 5 5 6 6 7 7 7 7 7 7
nan nan nan nan nan nan nan nan nan nan nan nan nan nan nan nan nan nan nan nan nan nan nan 25 28 29 30 29 23 19 19 22 25 22 18 17 16 16 14 11 11 12 15 17 18 17 15 12 11 10 9 7 6 8 6 4 6 8 9 10 10 8 6 6 8 7 7 7 6 5 5 6 5 5 5 5 5 5 5 6 6 5 5 6 6 6 6 5 6 6 7 7 8 7 8 7 7
nan nan nan nan nan nan nan nan nan nan nan nan nan nan nan nan nan nan nan nan nan nan nan 28 28 27 30 31 24 15 15 20 22 22 20 20 18 17 15 13 11 11 13 16 18 17 17 14 12 10 9 8 7 7 7 6 5 6 7 8 10 10 8 7 7 8 9 8 8 6 5 5 6 6 6 6 6 5 6 7 6 6 6 7 7 7 7 6 6 6 6 7 7 7 7 7 6
nan nan nan nan nan nan nan nan nan nan nan nan nan nan nan nan nan nan nan nan nan nan nan 30 31 31 28 29 24 18 18 18 19 22 24 22 19 17 15 13 13 12 13 15 17 17 16 14 13 12 10 10 8 8 8 7 6 6 6 7 8 10 10 8 8 9 10 10 8 7 6 5 6 7 7 7 7 8 8 9 8 7 7 8 9 8 7 7 6 5 5 5 6 5 6 5 5
nan nan nan nan nan nan nan nan nan nan nan nan nan nan nan nan nan nan nan nan nan nan nan 33 33 34 32 30 29 27 27 22 18 20 22 22 17 15 15 14 14 12 11 13 16 17 16 14 14 13 12 11 11 8 8 7 7 7 8 6 7 8 9 9 9 9 10 11 11 9 8 7 7 7 8 8 9 9 10 9 9 8 8 8 8 8 7 6 6 5 4 5 6 4 5 6 6
nan nan nan nan nan nan nan nan nan nan nan nan nan nan nan nan nan nan nan nan nan nan nan 31 33 37 29 28 31 33 31 22 18 16 17 18 18 16 15 16 15 14 13 12 14 15 17 16 15 13 11 10 10 10 9 8 7 7 8 8 7 8 9 10 10 10 9 11 11 11 10 9 8 8 9 10 10 11 11 11 10 9 9 8 8 7 6 4 4 4 4 5 7 6 5 7 8
nan nan nan nan nan nan nan nan nan nan nan nan nan nan nan nan nan nan nan nan nan nan nan nan 31 30 28 26 29 32 27 22 19 19 15 17 17 15 15 17 16 15 14 13 12 13 15 16 16 16 15 13 11 10 9 7 6 5 7 8 8 9 9 10 10 10 10 11 11 12 11 10 9 9 10 11 11 12 13 12 11 10 10 9 7 6 3 2 1 2 3 4 6 7 8 8 7
nan nan nan nan nan nan nan nan nan nan nan nan nan nan nan nan nan nan nan nan nan nan nan nan 28 29 28 28 32 31 27 20 18 16 12 13 16 15 15 18 18 15 15 14 13 12 13 15 16 16 15 13 12 11 9 8 6 5 6 7 8 8 9 10 10 10 10 10 11 12 11 10 10 10 11 12 13 14 14 13 11 10 9 8 6 4 3 2 1 2 3 3 5 7 8 8 7
Wind_Direction
nan nan nan nan nan nan nan nan nan 29 30 36 40 18 52 69 62 76 105 83 132 115 103 114 77 68 85 82 94 221 183 47 111 54 21 3 332 334 349 327 336 339 346 13 48 49 15 12 354 345 340 340 331 321 311 303 302 318 332 340 334 328 325 329 335 337 332 324 315 301 292 285 284 285 279 272 263 256 252 250 246 243 235 231 229 235 239 243 264 276 286 294 298 298 296 297 300
nan nan nan nan nan nan 54 25 nan 46 30 44 41 22 nan nan 79 83 63 121 144 83 101 116 104 92 96 293 297 188 172 159 187 289 259 320 327 343 340 337 343 339 349 12 38 56 63 30 349 346 341 332 322 319 322 326 330 340 344 341 332 331 333 337 342 336 329 321 310 299 298 297 299 294 281 270 263 261 258 258 250 243 230 218 224 228 231 243 254 277 298 306 302 301 304 306 307
nan nan nan nan nan 55 36 nan nan 38 59 57 46 32 10 53 73 81 127 230 352 19 50 89 85 92 84 108 169 178 131 183 278 269 298 330 325 3 341 338 340 337 339 16 26 34 76 63 6 349 333 327 332 337 339 339 344 348 348 343 340 336 341 344 343 334 326 323 317 318 323 324 311 297 285 273 265 256 254 255 254 243 222 221 226 232 241 260 282 297 309 316 315 312 308 310 309
nan nan nan nan 73 nan 42 39 50 43 50 56 35 51 65 82 73 67 188 125 117 348 76 45 55 66 3 232 268 264 294 197 286 313 333 356 351 353 339 333 335 344 0 14 11 23 56 39 19 355 343 345 348 347 346 351 357 355 352 349 345 344 349 348 338 334 332 334 339 338 324 326 317 308 302 289 272 261 252 253 252 250 235 229 233 237 243 261 278 288 307 309 306 307 308 308 313
102 102 101 71 59 60 35 40 49 34 34 46 64 29 350 87 67 219 120 102 115 97 52 51 73 117 15 323 49 104 12 312 314 302 337 353 341 341 335 331 340 353 2 358 1 5 28 355 2 353 349 351 354 353 354 356 1 1 358 354 350 349 350 345 341 342 347 350 350 336 338 337 321 311 306 299 285 266 255 253 255 257 255 245 241 226 219 233 270 290 304 293 304 309 314 320 323
96 106 83 60 63 46 33 50 36 35 43 72 37 39 25 87 63 12 356 147 137 144 85 73 73 360 176 155 140 285 340 9 346 318 338 354 338 336 332 341 351 345 347 345 356 20 15 355 346 350 352 354 354 358 357 359 4 4 5 357 352 349 350 346 350 353 356 359 356 343 347 343 328 317 311 306 291 271 264 264 271 273 268 281 265 256 247 242 225 255 251 296 312 322 326 328 331
72 59 80 69 65 15 29 59 73 58 34 57 355 94 91 107 90 342 328 145 156 106 106 283 278 278 260 354 292 336 5 317 346 341 356 349 338 336 344 350 333 321 327 338 359 6 358 352 346 349 353 354 354 357 360 4 7 7 6 359 353 351 351 356 359 3 2 6 357 350 351 353 343 334 325 318 311 294 279 277 274 268 264 262 265 259 250 267 271 126 343 287 299 317 323 329 332
80 89 108 58 46 349 11 52 72 33 51 41 349 31 52 80 53 354 309 180 88 95 109 121 231 261 246 275 292 308 325 308 312 330 339 349 343 345 344 328 316 317 321 335 9 32 349 346 349 348 348 351 354 358 358 1 7 7 7 359 357 359 2 7 8 9 11 11 6 6 5 6 2 347 339 336 332 321 306 290 274 252 249 250 254 256 230 208 174 147 227 245 265 309 324 325 336
77 336 57 35 16 5 10 41 49 360 57 80 35 49 316 74 67 14 353 352 341 114 102 274 294 272 8 308 295 319 286 309 320 328 341 348 355 349 334 324 319 315 323 328 9 38 39 345 341 343 340 348 1 359 359 6 13 10 8 3 5 14 19 19 18 17 18 22 19 18 15 13 8 2 354 350 352 337 324 307 277 260 242 246 244 250 257 257 172 194 216 224 231 287 303 303 335
77 300 291 360 1 43 52 77 321 90 91 125 99 85 2 54 71 75 14 324 342 14 51 81 267 291 328 291 305 311 319 324 331 337 350 356 354 324 326 326 319 317 313 330 23 63 76 348 339 344 352 356 6 7 14 21 20 15 14 21 23 27 31 28 25 22 24 27 23 26 27 21 17 12 13 13 5 354 340 329 311 283 267 256 249 240 237 265 263 227 234 235 218 219 229 226 180
253 268 281 314 18 46 50 104 304 334 86 103 112 145 101 170 115 79 45 325 334 8 345 296 270 291 307 302 283 307 314 328 333 341 354 356 331 330 332 328 322 315 320 332 3 56 65 64 344 352 358 5 15 18 23 30 32 32 37 43 36 36 36 33 28 26 28 31 27 22 26 25 21 19 20 12 10 9 356 334 324 314 291 279 265 272 288 261 249 246 251 246 210 193 193 184 158
264 257 274 303 40 24 46 83 97 323 349 42 139 107 121 94 101 72 350 328 352 330 318 339 284 303 287 313 320 320 326 337 341 350 350 334 336 326 326 329 322 319 323 339 0 45 64 69 71 11 2 10 21 30 38 44 51 51 51 41 39 39 37 32 29 28 29 31 29 27 24 22 20 21 23 23 19 11 358 344 328 320 316 316 313 277 252 250 248 243 238 222 203 185 173 164 150
281 277 304 306 22 6 31 54 35 334 32 27 351 46 99 49 63 68 13 339 331 308 311 280 311 312 302 325 332 324 333 344 348 352 340 345 326 321 325 327 324 323 326 345 7 30 38 68 76 71 42 12 26 37 48 53 54 49 41 37 39 41 33 31 30 28 27 28 31 30 25 18 14 17 21 26 20 16 3 346 330 322 323 311 290 252 231 230 244 242 224 217 206 187 162 149 157
280 304 290 359 336 30 44 9 24 315 292 50 350 130 93 96 92 97 42 336 334 322 307 320 309 301 285 310 341 338 335 347 349 346 350 332 318 314 324 332 323 320 335 354 16 32 47 56 71 74 64 74 80 65 55 53 52 41 37 40 37 36 32 28 28 25 23 23 25 25 23 17 13 12 17 23 21 18 11 350 352 330 343 335 307 280 257 244 231 223 220 209 195 178 148 141 145
299 267 251 296 23 327 355 335 308 266 256 49 3 35 60 90 104 82 54 344 308 315 325 288 297 292 357 341 351 344 338 350 348 349 nan 314 305 321 329 326 315 326 344 2 25 36 49 58 66 77 84 87 90 96 98 76 46 41 37 36 37 32 31 27 24 23 21 21 18 20 21 13 13 10 15 21 24 22 18 10 359 351 356 343 326 293 279 272 227 202 202 194 184 147 127 117 128
277 271 257 205 153 206 191 282 302 289 5 52 287 230 78 110 77 72 59 58 316 320 348 315 353 166 341 354 333 331 339 341 352 nan nan 312 317 326 319 315 327 330 358 15 38 53 53 62 76 84 87 89 94 97 94 91 62 39 38 34 31 30 25 24 21 19 18 16 12 14 14 24 18 25 13 29 22 23 24 37 19 15 8 6 16 78 131 119 118 160 170 166 151 117 95 95 116
291 254 234 207 148 206 256 325 283 289 355 345 264 151 114 46 59 60 64 344 327 337 14 339 360 303 331 329 330 332 334 342 354 nan nan nan nan 327 320 339 343 346 32 39 58 60 54 59 71 87 88 87 90 94 94 91 72 42 47 34 27 24 22 20 17 14 14 15 16 12 23 39 39 42 40 47 28 47 34 30 27 21 19 17 36 85 100 113 127 125 130 123 112 95 88 90 101
261 254 247 178 68 105 94 310 272 293 330 351 337 348 60 54 65 16 24 345 331 337 338 20 309 314 316 321 332 330 336 349 nan nan nan nan nan nan nan 356 350 16 46 62 73 58 57 74 76 85 93 91 93 95 95 92 86 70 84 78 71 49 33 27 35 42 27 42 14 29 39 38 44 45 45 37 55 48 45 29 33 30 29 28 52 84 103 109 115 120 110 105 95 88 93 110 105
nan 267 252 143 263 26 348 310 287 308 322 350 340 275 28 29 88 61 36 1 339 351 6 18 329 312 312 324 333 338 nan nan nan nan nan nan nan nan nan 334 1 6 57 76 87 61 72 78 82 84 89 90 87 91 91 90 90 94 86 79 69 53 51 55 48 39 49 44 46 36 35 41 48 54 53 49 56 35 41 32 34 37 38 47 70 83 88 98 105 101 99 99 97 87 107 100 96
nan nan 266 309 356 6 75 355 334 308 306 323 316 326 353 20 43 83 43 6 351 347 337 340 304 315 319 332 344 nan nan nan nan nan nan nan nan nan nan nan 339 35 34 57 67 86 76 81 81 87 85 76 83 90 90 87 90 87 81 78 69 57 60 54 50 49 48 47 46 43 44 49 52 55 39 26 37 60 50 37 39 44 48 59 73 100 92 97 100 101 102 103 108 111 105 96 88
259 nan nan nan 326 327 19 312 315 318 314 317 317 330 31 38 77 114 92 358 13 351 355 326 320 316 321 335 342 nan 345 nan nan nan nan nan nan nan nan nan nan nan 60 89 84 77 73 75 85 87 84 76 82 84 79 79 80 73 76 72 66 59 52 51 52 53 53 51 53 50 48 49 46 54 65 63 63 62 68 71 73 79 85 87 86 101 104 102 108 108 107 107 105 101 95 87 85
nan 251 319 nan 253 293 342 328 321 337 321 303 317 326 1 322 119 43 67 17 29 359 342 320 318 322 326 333 336 359 344 nan nan nan nan nan nan nan nan nan nan nan 224 72 70 68 67 79 83 84 81 82 80 76 65 64 54 59 65 66 61 63 57 52 55 55 55 58 58 62 52 51 50 58 67 67 66 64 68 68 69 71 76 80 85 85 91 91 95 96 97 98 99 97 93 83 79
nan nan nan nan 282 247 251 270 321 328 302 313 318 313 309 330 96 47 47 53 37 17 342 327 322 327 328 326 338 360 345 nan nan nan nan nan nan nan nan nan nan nan 202 59 63 85 72 80 80 78 76 78 62 58 54 54 52 50 53 58 57 59 58 58 59 57 62 64 63 67 51 53 59 64 64 72 68 66 65 71 76 77 71 73 84 82 83 85 89 87 90 93 95 97 94 91 92
nan nan nan nan 261 228 258 279 283 317 310 296 308 327 325 338 42 57 44 35 12 40 12 326 323 327 327 330 353 351 343 337 nan nan nan nan nan nan nan nan nan nan nan 308 348 48 63 53 67 70 76 65 66 50 41 39 47 38 37 46 53 55 56 60 62 67 68 71 75 80 69 55 61 68 70 70 77 77 72 71 73 79 78 74 79 83 82 84 89 92 93 96 95 96 99 97 102
nan nan nan 219 287 306 nan 282 312 308 294 292 313 306 308 317 9 42 34 20 351 359 22 331 326 317 324 337 357 335 337 333 342 nan nan nan nan nan nan nan nan nan nan 307 300 344 24 38 49 58 66 57 59 39 29 38 42 36 39 45 50 52 60 62 65 72 75 86 92 64 63 68 75 73 71 74 83 82 79 78 76 77 77 79 79 82 88 82 84 87 90 89 93 103 103 103 108
nan nan nan nan 255 243 nan 311 320 306 284 297 317 317 313 333 16 4 351 342 338 343 34 323 323 327 330 346 3 329 332 335 343 343 349 nan nan nan nan nan nan nan nan nan 301 347 350 13 33 39 53 51 54 27 33 35 41 44 41 49 47 48 55 58 61 70 78 76 77 80 79 80 74 63 64 74 78 82 83 85 85 81 79 76 78 79 84 87 84 86 92 95 95 98 99 98 101
nan nan nan nan nan 235 269 321 330 315 288 303 310 339 321 352 351 314 344 344 335 345 341 327 329 343 347 350 348 332 339 343 343 341 349 7 nan nan nan nan nan 254 277 300 nan 307 311 349 13 31 42 50 50 29 28 27 39 48 49 49 45 45 52 57 63 68 72 77 83 90 91 83 73 66 65 68 77 82 83 83 94 93 92 90 92 91 87 86 88 79 84 89 91 93 93 94 96
nan nan nan nan nan nan nan nan nan nan 298 309 304 326 331 348 343 322 323 324 330 320 325 329 337 350 351 354 336 342 352 338 330 336 358 8 nan nan nan nan nan 277 286 332 283 258 315 328 339 8 28 23 34 22 29 27 34 54 51 46 44 41 39 53 65 74 83 77 80 90 86 74 74 77 73 75 75 79 82 83 87 88 87 91 89 91 94 92 92 91 85 90 93 93 91 92 87
nan nan nan nan nan nan nan nan nan 275 280 299 309 295 318 333 327 313 316 314 325 319 313 326 332 333 nan nan nan nan 354 327 325 336 3 13 19 nan nan nan nan 288 242 302 320 306 321 325 327 343 2 11 14 13 27 30 41 44 33 53 61 33 21 49 60 79 89 83 81 88 85 78 81 79 79 81 76 81 79 81 80 87 82 79 89 94 95 95 94 98 94 91 94 98 96 87 88
nan nan nan nan nan nan nan nan nan nan nan 294 304 289 314 337 311 302 301 318 321 319 306 319 315 325 347 20 nan nan nan 326 338 337 1 359 9 nan nan nan nan nan 254 245 319 307 316 308 315 319 346 353 0 9 27 30 41 27 44 65 74 47 34 51 59 72 82 86 86 87 90 89 89 92 89 92 89 79 79 82 82 83 87 86 87 86 90 92 95 92 93 95 92 92 93 91 92
nan nan nan nan nan nan nan nan nan nan nan 290 288 277 287 299 309 306 301 307 321 316 308 314 315 327 352 356 nan nan nan nan nan nan 350 nan 359 nan nan nan nan nan nan 275 324 293 324 295 313 317 333 345 357 358 13 15 17 35 61 69 73 72 25 45 63 71 75 78 83 88 81 82 84 84 79 74 75 75 74 78 83 81 82 84 87 90 97 99 99 100 92 89 93 91 89 88 80
nan nan nan nan nan nan nan nan nan nan nan nan 284 271 262 274 306 300 306 301 313 307 305 305 313 319 341 335 nan nan nan 353 nan nan 347 337 348 356 nan nan nan nan nan 298 nan 291 310 291 307 310 324 341 339 342 4 360 354 31 70 60 69 80 46 34 58 66 75 84 85 82 80 83 85 82 76 74 70 70 70 71 75 81 85 88 94 97 102 100 98 98 93 84 82 82 82 83 82
nan nan nan nan nan nan nan nan nan nan nan nan 299 265 277 256 294 307 302 302 311 297 299 305 311 327 335 316 nan 354 3 nan nan nan 346 333 341 348 nan nan nan nan nan nan nan 294 283 293 297 313 325 332 323 332 354 8 1 34 57 45 63 89 76 38 56 71 74 83 90 88 87 90 86 81 76 75 67 64 68 70 76 79 86 93 95 100 96 93 93 89 86 80 76 75 76 79 81
nan nan nan nan nan nan nan nan nan nan nan nan nan 280 288 290 318 306 299 298 300 296 284 281 292 272 323 313 337 5 5 nan nan nan nan 334 nan 331 nan 318 nan nan nan nan nan nan 282 289 286 308 316 311 320 329 353 10 9 26 41 39 68 88 98 80 76 81 90 90 92 94 97 96 90 85 76 71 73 73 76 76 80 86 85 85 91 90 86 85 85 83 83 78 73 71 73 77 75
nan nan nan nan nan nan nan nan nan nan nan nan nan nan 291 278 290 301 301 304 302 302 290 285 286 273 311 317 329 3 0 7 9 nan nan nan 331 321 317 nan nan nan nan nan nan nan 278 281 279 302 313 299 316 321 355 10 9 32 40 47 nan 90 92 92 99 107 110 102 93 100 104 103 103 90 82 76 74 78 81 79 80 88 92 92 90 87 91 89 84 80 76 79 73 69 68 70 69
nan nan nan nan nan nan nan nan nan nan nan nan nan nan 296 280 308 292 306 307 297 300 289 285 282 286 301 312 322 352 359 6 16 nan nan nan nan 318 305 304 nan nan nan nan nan nan 288 275 277 289 nan 294 296 305 344 7 15 23 32 49 60 92 100 106 127 108 99 86 78 83 98 105 97 85 81 81 80 79 80 83 79 85 94 97 93 92 86 82 78 75 73 71 65 68 66 70 70
nan nan nan nan nan nan nan nan nan nan nan nan nan nan nan 277 285 289 294 292 284 287 297 285 285 300 310 303 321 342 353 6 9 2 nan nan nan nan 306 nan nan nan nan nan nan nan 293 270 285 294 nan 287 290 304 347 18 20 32 57 40 44 76 84 87 91 90 89 91 81 87 95 93 91 87 82 82 82 81 91 86 77 82 89 94 94 86 81 82 80 78 79 76 76 77 63 70 77
nan nan nan nan nan nan nan nan nan nan nan nan nan nan nan 287 287 291 290 287 296 297 303 288 279 300 303 311 322 334 347 357 3 7 348 nan nan nan nan nan 303 nan nan nan nan nan 285 275 289 290 nan 287 293 308 342 40 53 44 33 41 49 68 64 57 65 80 88 88 83 91 98 104 97 94 98 99 95 86 80 82 69 70 71 74 75 85 87 84 84 84 89 99 96 91 91 90 82
nan nan nan nan nan nan nan nan nan nan nan nan nan nan nan 301 298 286 296 293 293 303 307 300 300 302 291 295 314 325 335 352 358 7 1 348 nan 336 nan nan 306 nan nan nan nan 286 282 279 278 282 277 287 293 302 323 33 75 81 71 45 29 79 89 78 57 61 77 84 92 100 106 108 99 104 102 97 96 90 79 78 77 75 80 90 101 92 92 93 94 95 96 96 101 99 93 89 82
nan nan nan nan nan nan nan nan nan nan nan nan nan nan 296 301 297 296 302 294 283 292 302 303 302 309 292 302 300 315 336 342 355 0 3 358 354 344 nan 313 305 299 nan nan nan 294 279 272 274 275 275 282 289 304 324 8 43 76 92 360 11 56 75 73 77 61 55 69 87 95 105 103 99 104 92 96 101 101 99 99 96 97 96 98 96 96 98 97 100 96 94 92 92 nan 91 92 87
nan nan nan nan nan nan nan nan nan nan nan nan nan nan nan 284 286 287 293 285 277 285 281 284 291 290 287 274 300 306 326 337 349 357 2 358 356 353 339 324 303 300 nan nan nan 292 273 290 282 275 271 279 289 307 319 330 0 83 110 161 327 47 104 65 76 71 53 52 71 96 90 90 98 105 91 95 106 97 104 105 100 92 90 87 93 94 94 92 92 91 91 95 92 88 nan 84 90
nan nan nan nan nan nan nan nan nan nan nan nan nan nan nan 282 291 293 293 285 282 287 284 287 289 290 279 277 306 297 310 325 346 352 359 354 357 355 344 340 323 303 292 nan nan 289 282 285 284 277 266 267 290 310 317 320 340 356 341 9 349 27 nan 52 50 47 39 44 50 80 73 72 90 96 90 88 84 85 90 91 94 97 94 83 83 82 85 93 97 92 93 94 97 89 72 81 89
nan nan nan nan nan nan nan nan nan nan nan nan nan nan nan 275 289 294 295 295 285 282 289 289 290 286 280 270 291 294 299 314 338 347 351 346 350 355 349 347 339 317 295 nan nan nan 290 287 292 284 276 269 281 304 313 302 319 329 347 14 nan 17 nan nan nan 55 18 39 46 51 51 64 69 79 71 72 77 68 78 85 88 92 88 83 86 79 88 87 87 88 91 95 89 82 69 76 62
nan nan nan nan nan nan nan nan nan nan nan nan nan nan nan nan 282 293 300 296 283 277 273 289 284 290 287 280 286 298 294 296 326 342 346 339 344 354 356 350 344 326 305 nan nan nan 294 287 294 288 275 275 276 293 304 305 307 314 330 8 10 44 nan nan nan nan nan 29 30 36 42 56 57 80 63 70 71 56 67 81 83 84 82 81 81 78 82 86 93 106 97 93 90 86 75 60 69
nan nan nan nan nan nan nan nan nan nan nan nan nan nan nan nan nan 287 287 286 278 271 273 280 281 279 288 283 291 303 302 291 310 329 339 332 341 348 351 354 347 330 323 314 297 282 285 280 287 290 282 283 280 297 301 296 300 310 322 336 334 76 40 52 nan 62 26 25 350 41 33 46 59 71 68 57 72 56 70 76 77 78 80 79 76 76 90 85 85 86 96 95 93 90 82 73 71
nan nan nan nan nan nan nan nan nan nan nan nan nan nan nan nan nan 261 275 280 278 275 282 277 272 281 285 282 283 295 292 283 294 315 329 332 333 335 346 349 351 346 338 318 302 283 283 284 288 297 293 288 287 297 297 292 297 299 312 311 327 35 134 11 nan 33 20 22 3 22 27 35 57 70 74 57 63 46 59 77 84 77 68 69 72 75 88 90 86 81 81 80 85 87 89 70 65
nan nan nan nan nan nan nan nan nan nan nan nan nan nan nan nan nan nan 265 271 274 272 271 256 258 273 285 284 292 294 292 287 294 287 313 321 314 324 331 345 355 348 340 334 322 304 293 296 296 299 304 288 298 303 297 297 291 296 311 314 333 341 316 308 330 39 18 305 350 352 0 28 49 57 79 59 49 35 37 52 69 81 87 60 65 59 71 67 68 74 77 79 80 76 81 75 78
nan nan nan nan nan nan nan nan nan nan nan nan nan nan nan nan nan nan nan nan 302 281 282 278 281 287 283 280 292 301 293 288 294 291 294 302 299 321 330 338 348 350 340 340 328 312 298 297 296 296 300 296 302 308 304 296 283 293 298 314 329 336 310 298 332 360 5 324 305 321 336 347 37 51 69 58 57 32 31 36 46 63 76 73 48 35 46 45 47 55 66 72 72 73 69 77 71
nan nan nan nan nan nan nan nan nan nan nan nan nan nan nan nan nan nan nan nan 315 311 297 295 296 286 287 300 303 292 289 286 288 292 282 292 297 319 330 334 339 347 342 341 333 320 304 299 305 305 306 300 298 309 316 307 289 283 295 312 312 320 303 298 321 336 325 295 294 286 312 328 344 26 53 39 51 36 27 28 33 31 50 61 53 8 33 22 16 20 32 47 57 59 65 69 69
nan nan nan nan nan nan nan nan nan nan nan nan nan nan nan nan nan nan nan nan nan nan 301 300 300 295 294 302 293 284 283 283 287 282 281 292 294 302 320 328 336 343 339 340 332 323 309 302 308 314 307 295 283 301 315 314 304 287 286 295 306 309 293 293 299 317 316 282 281 290 309 320 337 3 10 19 25 20 20 19 23 16 23 30 35 26 6 21 6 8 21 27 39 52 63 69 71
nan nan nan nan nan nan nan nan nan nan nan nan nan nan nan nan nan nan nan nan nan nan 257 311 304 298 300 297 284 281 275 276 280 280 284 294 301 290 293 320 327 333 334 337 332 322 316 311 312 316 302 293 275 285 290 317 301 292 280 284 293 286 293 281 282 292 303 299 283 289 294 304 320 344 346 347 352 350 358 355 6 355 3 357 359 16 16 8 359 4 13 25 28 38 53 60 75
nan nan nan nan nan nan nan nan nan nan nan nan nan nan nan nan nan nan nan nan nan nan nan 294 301 292 285 280 285 286 286 278 276 283 286 291 298 292 281 288 311 324 329 331 330 318 317 319 317 319 317 306 287 276 273 286 289 282 282 283 289 290 280 272 265 267 286 294 296 297 295 304 316 313 316 318 341 329 334 342 345 349 337 340 333 345 357 348 360 354 8 18 22 33 34 45 57
nan nan nan nan nan nan nan nan nan nan nan nan nan nan nan nan nan nan nan nan nan nan nan 274 299 289 287 285 289 300 301 287 282 286 285 285 285 292 288 291 298 318 325 325 323 314 314 317 324 331 326 313 313 294 280 264 261 267 284 284 277 280 288 291 290 285 293 292 292 298 300 301 305 306 306 313 316 320 320 330 335 340 336 328 329 330 334 337 345 353 356 16 19 25 21 30 47
nan nan nan nan nan nan nan nan nan nan nan nan nan nan nan nan nan nan nan nan nan nan nan 264 291 284 285 289 295 298 304 306 297 291 288 286 286 288 287 294 304 315 325 312 310 309 309 318 332 341 340 337 330 306 292 272 260 254 261 276 278 283 285 289 285 291 285 290 290 292 294 288 302 311 313 307 306 309 312 324 326 336 333 327 328 329 331 334 337 355 13 21 34 19 27 32 38
nan nan nan nan nan nan nan nan nan nan nan nan nan nan nan nan nan nan nan nan nan nan nan 248 273 274 283 290 293 288 290 280 272 282 281 283 282 284 283 292 298 302 303 300 297 307 307 317 336 348 354 350 340 324 309 285 275 253 246 267 280 275 276 278 278 286 285 293 302 300 305 312 300 300 310 302 311 302 311 316 322 330 327 330 325 325 332 329 341 7 38 50 67 48 32 49 47
nan nan nan nan nan nan nan nan nan nan nan nan nan nan nan nan nan nan nan nan nan nan nan 236 271 274 279 285 286 283 280 273 268 276 286 288 288 289 290 285 290 295 290 294 301 306 317 321 333 347 355 352 347 343 331 327 314 286 267 261 265 270 273 275 276 281 291 297 301 306 308 306 314 294 306 306 308 307 308 311 320 324 328 323 323 323 328 335 341 14 46 56 70 76 69 55 59
nan nan nan nan nan nan nan nan nan nan nan nan nan nan nan nan nan nan nan nan nan nan nan nan 260 267 283 281 276 275 275 274 274 273 283 299 291 287 283 280 281 284 282 288 299 310 313 315 327 339 349 354 358 354 343 339 313 303 290 291 289 279 282 275 277 282 290 295 294 301 306 305 303 303 296 304 307 311 309 311 315 319 322 319 316 320 319 342 334 21 50 58 62 71 72 75 65
nan nan nan nan nan nan nan nan nan nan nan nan nan nan nan nan nan nan nan nan nan nan nan nan 255 267 261 261 261 267 269 280 285 270 277 292 292 286 281 272 267 276 283 290 295 293 303 316 317 326 338 350 358 1 354 342 333 315 311 292 291 283 283 279 289 289 292 291 292 294 299 293 304 310 297 303 309 309 309 314 313 314 313 309 309 301 299 296 336 17 55 77 64 57 66 72 80